#timestamp,LO_Frequency,Hit,StdDev 
1607173215.6,286046997.4,P
1607173235.4,286046998.0,N
1607173255.2,286046998.9,N
1607173275.1,286047001.2,N
1607173276.0,286047001.2,N
1607173295.8,286046999.6,N
1607173315.7,286046993.6,Y
1607173335.5,286046994.6,P
1607173355.3,286046990.9,P
1607173375.2,286046988.4,P
1607173395.0,286046984.6,Y
1607173395.9,286046984.6,P
1607173415.8,286046991.0,N
1607173435.6,286046992.7,N
1607173455.4,286046991.0,N
1607173475.3,286046988.7,Y
1607173495.1,286046997.4,P
1607173515.9,286046997.5,N
1607173535.7,286046994.9,N
1607173555.5,286046995.5,N
1607173575.4,286046997.2,N
1607173595.2,286046996.6,N
1607173615.0,286046998.7,N
1607173616.0,286046998.7,N
1607173635.8,286047000.5,N
1607173655.6,286047000.6,N
1607173675.5,286047000.9,N
1607173695.3,286047000.6,N
1607173715.1,286047005.4,N
1607173735.9,286047003.0,N
1607173755.7,286047003.9,N
1607173775.6,286047006.0,N
1607173795.4,286047005.5,N
1607173815.2,286047003.1,N
1607173835.1,286047004.3,N
1607173836.0,286047004.3,N
1607173855.8,286047001.4,N
1607173875.7,286047003.2,N
1607173895.5,286047003.9,N
1607173915.3,286047003.6,N
1607173935.2,286047003.4,N
1607173955.0,286047004.4,N
1607173955.9,286047004.4,N
1607173975.7,286047001.7,N
1607173995.6,286047001.3,N
1607174015.4,286047003.3,N
1607174035.3,286047006.0,N
1607174055.1,286047005.7,N
1607174056.0,286047005.7,N
1607174075.8,286047006.0,N
1607174095.7,286047002.9,N
1607174115.5,286047005.6,N
1607174135.4,286047003.4,N
1607174155.2,286047003.0,N
1607174175.0,286047005.7,Y
1607174175.9,286047005.7,P
1607174195.8,286047004.0,P
1607174215.6,286047002.8,P
1607174235.5,286047004.4,Y
1607174255.3,286046999.4,P
1607174275.1,286046996.8,N
1607174295.9,286046996.8,N
1607174315.7,286046996.5,N
1607174335.5,286046999.3,N
1607174355.4,286046998.6,N
1607174375.2,286046999.1,N
1607174395.1,286046999.4,N
1607174396.0,286046999.4,N
1607174415.8,286047000.6,N
1607174435.6,286047000.4,N
1607174455.5,286047001.0,N
1607174475.3,286047002.6,N
1607174495.1,286046999.7,N
1607174515.9,286047000.3,N
1607174535.7,286046999.8,N
1607174555.6,286047003.6,N
1607174575.4,286047004.4,N
1607174595.2,286047003.0,N
1607174615.1,286047003.1,N
1607174616.0,286047003.1,N
1607174635.8,286047003.7,N
1607174655.6,286047005.3,N
1607174675.5,286047003.2,N
1607174695.3,286047005.7,N
1607174715.2,286047000.6,N
1607174735.9,286046999.9,N
1607174755.7,286046999.4,N
1607174775.6,286046998.3,N
1607174795.4,286047002.1,N
1607174815.2,286047003.0,N
1607174835.1,286047007.3,N
1607174836.0,286047007.3,N
1607174855.8,286047008.9,Y
1607174875.7,286047003.6,P
1607174895.5,286047003.9,P
1607174915.3,286047003.5,P
1607174935.2,286047003.3,Y
1607174955.0,286046998.2,P
1607174955.9,286046998.2,N
1607174975.7,286046998.5,N
1607174995.6,286046998.3,N
1607175015.4,286046999.2,N
1607175035.3,286046999.4,N
1607175055.1,286047003.9,N
1607175056.0,286047003.9,N
1607175075.8,286047002.3,N
1607175095.7,286047004.2,N
1607175115.5,286047003.8,N
1607175135.4,286047008.6,Y
1607175155.2,286047010.0,P
1607175175.0,286047006.1,N
1607175175.9,286047006.1,N
1607175195.8,286047009.2,N
1607175215.6,286047004.8,N
1607175235.5,286047004.6,N
1607175255.3,286047005.4,N
1607175275.1,286047005.9,N
1607175295.9,286047002.8,N
1607175315.7,286046999.9,N
1607175335.5,286047002.3,N
1607175355.4,286046998.7,N
1607175375.2,286047005.0,N
1607175395.0,286047005.1,N
1607175396.0,286047005.1,N
1607175415.8,286047006.0,N
1607175435.6,286047001.6,N
1607175455.5,286047002.5,N
1607175475.3,286047003.0,N
1607175495.1,286047002.1,N
1607175515.9,286047000.0,N
1607175535.7,286047000.6,N
1607175555.5,286047001.7,N
1607175575.4,286046998.5,N
1607175595.2,286046998.7,N
1607175615.1,286046999.4,N
1607175616.0,286046999.4,N
1607175635.8,286046997.3,N
1607175655.6,286046996.8,N
1607175675.5,286046996.6,N
1607175695.3,286047002.7,N
1607175715.1,286047001.9,N
1607175735.9,286047001.0,N
1607175755.7,286047001.3,N
1607175775.6,286047002.0,N
1607175795.4,286046998.8,N
1607175815.2,286047001.9,N
1607175835.1,286047007.2,N
1607175836.0,286047007.2,N
1607175855.8,286047008.9,Y
1607175875.7,286047006.6,P
1607175895.5,286047004.5,N
1607175915.3,286047007.9,P
1607175935.2,286047010.6,Y
1607175955.0,286047005.3,P
1607175955.9,286047005.3,P
1607175975.7,286047000.2,N
1607175995.6,286046999.8,N
1607176015.4,286047003.2,N
1607176035.3,286047004.8,N
1607176055.1,286047002.9,N
1607176056.0,286047002.9,N
1607176075.8,286047005.0,N
1607176095.7,286047007.5,Y
1607176115.5,286047002.2,P
1607176135.3,286047002.5,P
1607176155.2,286047004.3,P
1607176175.0,286047002.8,Y
1607176175.9,286047002.8,P
1607176195.8,286047001.2,P
1607176215.6,286046997.8,N
1607176235.4,286046994.7,N
1607176255.3,286046996.4,N
1607176275.1,286046997.5,N
1607176295.9,286046992.6,N
1607176315.7,286046991.4,N
1607176335.5,286046992.5,N
1607176355.4,286046993.5,N
1607176375.2,286046994.4,N
1607176395.0,286046995.1,N
1607176395.9,286046995.1,N
1607176415.8,286046997.5,N
1607176435.6,286046997.7,N
1607176455.5,286046998.9,N
1607176475.3,286046995.2,N
1607176495.1,286046995.4,N
1607176515.9,286046999.6,N
1607176535.7,286046997.1,N
1607176555.6,286047000.8,N
1607176575.4,286046999.3,N
1607176595.2,286046997.8,N
1607176615.1,286046999.5,N
1607176616.0,286046999.5,N
1607176635.8,286046996.7,N
1607176685.7,286046992.8,E
1607176695.6,286046991.9,N
1607176715.4,286046998.6,P
1607176735.3,286047001.4,N
1607176755.1,286047001.6,N
1607176775.8,286047000.7,N
1607176795.7,286047000.5,N
